RH
55 67 64 61 88 90 94 78 66 62 48 35 31 30 32 39 46 59 73 82 87 83 86 85 85 88 87 87 83 81 72 74 88 94 96 93 95 99 91 94 96 95 96 97 88 92 91 92 96
67 67 61 83 88 92 71 75 68 59 45 38 32 40 64 72 79 78 79 81 79 82 85 85 86 85 86 85 86 84 81 83 85 88 91 96 92 98 92 94 97 95 95 96 93 93 87 88 92
63 65 68 89 93 93 69 61 61 48 39 36 33 39 70 78 79 80 76 85 89 89 87 86 84 85 76 72 81 86 86 84 83 86 85 88 94 87 93 92 94 92 90 92 89 88 92 96 96
58 65 73 89 88 82 69 55 51 47 36 32 29 32 47 71 77 85 83 90 82 81 82 82 86 85 72 66 62 64 78 87 85 82 87 85 93 82 92 86 85 85 84 82 63 45 72 84 84
60 75 83 95 93 81 66 54 45 41 37 34 31 30 49 72 76 80 82 96 85 77 77 81 80 74 72 73 69 64 62 67 86 85 86 86 93 88 88 81 78 76 78 78 70 44 67 71 76
82 74 80 80 76 60 50 41 34 34 33 30 29 32 51 76 89 75 82 93 94 86 89 75 71 71 74 77 78 76 83 87 75 82 87 84 86 87 81 80 81 76 81 82 75 51 54 66 74
83 81 76 81 80 62 48 34 33 35 34 29 27 30 29 72 82 98 83 97 70 77 87 94 89 89 92 95 94 91 90 95 92 76 82 88 82 84 81 85 75 78 83 85 82 65 47 59 70
83 81 88 82 80 64 46 43 35 32 34 28 26 35 61 87 98 100 100 98 97 78 82 84 88 95 95 95 92 92 91 92 96 91 74 86 84 84 82 81 77 82 82 85 84 80 50 49 66
52 85 93 77 75 63 48 50 38 31 33 33 28 38 54 78 73 98 99 100 98 100 98 84 87 95 96 90 84 82 78 67 77 87 82 83 85 85 82 80 76 82 78 81 80 82 73 48 55
67 88 80 65 57 56 51 53 49 44 44 40 33 32 29 30 48 86 95 98 99 99 100 98 96 93 88 84 76 78 76 67 59 61 87 87 85 87 85 78 77 79 80 90 81 81 85 56 48
64 78 64 54 49 52 58 54 45 47 51 39 41 38 36 32 35 80 92 99 98 98 100 100 96 93 85 80 69 65 67 58 57 53 48 77 88 88 87 80 79 83 82 85 87 88 76 51 46
73 63 60 58 56 57 58 48 48 47 44 37 38 38 36 40 46 56 88 87 87 93 92 93 94 90 87 81 74 71 65 65 52 51 51 60 82 96 90 84 81 85 86 86 90 85 59 46 42
57 58 59 59 58 55 50 52 51 48 39 36 39 38 41 45 42 31 33 84 82 79 81 79 83 83 84 81 74 59 58 61 55 53 50 53 79 95 98 87 87 87 88 91 86 71 51 46 42
61 66 65 60 59 57 59 51 50 43 36 36 34 36 40 45 42 34 32 53 80 81 72 69 69 66 71 69 59 57 57 57 61 66 53 46 61 79 98 97 92 88 88 91 80 63 51 47 43
63 68 68 60 55 60 55 60 64 44 41 43 39 35 32 47 37 39 31 30 34 55 73 69 68 69 74 63 59 63 65 68 63 72 69 59 52 73 74 96 100 80 90 93 75 68 55 46 41
74 72 92 60 57 55 50 62 46 43 46 50 48 43 40 44 44 35 30 31 29 35 58 70 73 69 62 58 59 67 74 78 80 74 79 86 62 68 84 87 99 97 98 92 85 64 58 49 44
81 98 90 78 56 60 69 80 62 51 53 54 54 57 45 45 47 38 35 33 28 37 56 67 72 70 66 66 72 78 80 83 83 88 87 93 94 91 96 82 94 83 82 89 92 62 58 59 59
84 93 83 92 64 61 69 66 56 52 60 67 69 68 51 55 53 40 32 39 49 53 62 75 76 73 74 72 86 94 97 99 96 90 94 99 98 100 100 90 80 82 95 84 86 64 68 65 59
72 88 93 77 64 72 78 78 69 61 72 80 80 72 68 72 61 47 57 83 84 74 76 87 89 79 84 89 96 95 92 85 94 90 98 100 100 100 100 97 79 76 92 78 62 68 71 68 57
93 96 89 76 67 80 84 87 70 64 69 74 68 74 81 85 94 97 96 99 99 100 96 91 92 94 94 95 90 90 84 81 81 87 91 95 98 99 90 95 88 81 79 73 73 72 64 60 58
92 93 83 88 82 85 94 85 79 70 74 86 90 94 91 96 96 94 90 94 93 93 97 98 97 92 86 92 94 92 93 97 92 96 89 84 90 94 96 91 80 75 71 71 71 64 64 66 63
96 65 72 85 98 99 77 97 74 86 84 87 90 95 92 94 86 87 92 94 98 98 91 97 94 96 99 98 100 100 100 96 97 90 100 96 91 93 92 91 79 76 74 69 65 63 67 70 71
82 75 86 91 99 90 92 92 81 82 88 90 93 93 93 95 96 96 95 99 100 100 99 100 99 100 100 100 99 97 99 100 96 90 100 98 92 91 93 80 74 78 74 80 69 84 84 81 86
72 84 85 97 100 99 84 87 86 92 89 87 81 94 95 94 93 92 95 98 100 100 100 98 100 98 100 98 100 100 96 100 100 99 100 100 100 97 94 86 90 90 92 93 73 70 72 77 98
90 98 97 98 98 93 94 88 91 87 84 87 95 95 95 94 92 93 93 97 98 100 100 96 96 91 93 94 96 99 100 100 100 98 98 100 100 100 97 93 90 85 87 86 92 95 92 92 89
88 99 99 97 97 97 96 97 94 88 83 89 91 92 92 93 92 94 96 98 99 100 96 97 94 88 86 87 86 93 100 100 100 100 100 100 99 94 98 91 93 96 98 97 94 97 98 98 93
96 100 94 100 87 95 97 100 97 95 88 89 91 90 94 94 94 96 95 99 98 94 89 85 84 79 70 72 78 81 88 92 96 98 95 98 99 99 100 100 99 98 100 96 100 96 94 93 92
91 89 99 99 97 96 94 98 100 100 100 99 97 96 93 93 93 93 95 95 90 76 69 67 70 71 67 63 64 66 66 68 74 78 78 81 82 85 92 96 97 97 100 100 100 100 100 100 95
88 94 95 80 97 97 90 93 91 100 100 100 96 95 93 93 93 93 92 76 65 67 68 67 68 69 69 66 66 66 66 65 66 68 69 70 69 71 73 72 78 80 81 92 97 100 100 100 100
60 68 70 82 72 84 78 91 86 94 95 90 96 91 92 91 92 86 72 69 70 71 68 69 69 72 76 75 69 65 65 69 72 74 73 70 70 70 72 73 74 76 82 84 96 99 95 99 99
Wind_Speed
4 3 1 4 4 4 3 6 1 2 1 1 6 4 6 4 4 4 1 13 5 16 26 23 20 17 16 17 17 17 17 17 15 16 15 15 15 15 17 17 18 19 17 18 14 15 16 17 18
3 3 4 3 4 3 5 4 4 4 4 9 5 6 1 5 2 4 3 7 13 22 28 26 23 20 19 19 17 16 16 16 16 15 16 16 17 16 16 17 17 17 18 18 16 15 16 18 18
4 4 3 4 3 5 5 4 6 6 8 4 5 2 3 4 3 3 3 8 16 26 27 25 23 21 20 19 17 15 15 15 16 16 16 16 17 18 17 17 19 17 18 17 16 16 18 18 17
3 5 4 3 6 5 5 3 2 5 6 6 4 7 5 1 2 5 3 12 20 23 25 24 22 21 19 17 16 15 15 15 15 16 16 17 17 18 18 19 22 19 14 14 15 18 20 20 16
6 3 3 2 4 4 5 5 5 5 3 5 6 5 3 3 2 3 4 15 21 24 25 24 21 19 17 15 12 12 12 15 15 17 17 17 18 18 18 21 22 21 19 15 15 18 21 19 17
4 2 2 3 4 4 5 2 3 2 3 8 7 8 4 11 7 6 7 17 18 21 22 22 20 18 17 15 11 10 11 11 15 18 19 20 20 20 19 24 23 21 22 18 16 17 20 19 16
5 3 3 2 3 3 4 1 1 2 4 3 7 5 7 11 16 9 6 9 14 19 22 22 22 21 20 17 15 13 11 8 10 18 20 21 20 21 22 23 21 23 22 20 16 17 18 20 18
4 3 2 3 3 4 2 5 3 4 3 6 5 3 5 12 13 8 4 8 11 17 22 23 22 21 21 18 13 9 7 4 3 13 18 19 20 22 22 26 22 21 21 22 20 17 18 19 19
3 2 3 4 5 3 5 6 4 4 4 4 3 2 6 10 13 7 6 5 11 16 19 23 23 25 20 17 13 10 7 4 4 6 13 17 20 23 26 28 25 23 23 22 23 19 18 18 18
3 3 6 4 1 2 5 4 5 4 6 3 4 9 18 21 14 10 12 7 9 15 19 20 22 24 24 20 12 12 9 6 6 9 9 15 21 25 30 29 26 25 23 23 22 21 19 18 18
2 4 4 3 5 4 4 7 3 4 7 5 7 7 9 15 20 12 15 17 14 11 16 19 20 24 24 23 18 13 11 5 4 9 7 13 21 28 32 30 29 27 27 25 24 24 21 20 19
2 4 3 3 5 4 6 4 7 10 9 6 7 7 5 9 9 12 14 24 22 21 18 17 19 20 23 21 20 18 17 19 17 18 15 12 22 29 32 33 32 31 30 29 27 26 23 21 19
1 3 5 7 7 8 8 10 11 12 13 13 7 7 9 9 14 25 24 14 23 21 22 22 22 22 23 24 25 23 25 27 29 28 23 12 22 29 31 34 34 34 32 30 30 27 25 23 21
4 4 7 5 9 8 12 17 5 3 12 18 16 13 8 10 13 20 24 20 16 22 22 21 23 23 23 24 21 21 21 23 24 29 27 26 24 29 25 33 38 36 33 34 32 30 27 24 22
5 7 7 6 7 6 6 13 9 12 10 13 16 15 13 10 18 16 26 25 24 25 25 23 25 23 24 22 20 20 18 19 23 26 31 31 26 33 36 25 33 31 34 36 33 30 25 24 22
5 3 4 6 3 5 7 15 15 12 8 13 12 15 14 9 15 24 28 24 27 28 31 26 25 26 26 25 21 21 20 19 23 27 30 34 30 32 38 37 29 32 29 37 33 30 27 26 25
4 4 4 7 3 5 6 10 7 7 10 16 17 14 13 10 11 21 26 22 27 25 28 26 26 28 26 23 20 21 19 23 27 31 35 31 30 36 38 34 30 29 35 36 35 32 31 27 25
4 3 4 6 4 5 13 22 24 15 9 13 13 13 12 9 12 22 24 18 21 21 23 23 23 23 24 23 22 21 17 21 28 35 37 38 35 38 37 37 29 36 38 37 39 35 30 28 26
2 3 10 12 14 11 14 19 21 14 6 11 12 9 11 12 12 21 14 9 10 13 16 17 16 18 21 22 23 22 24 21 25 29 26 30 34 34 38 37 35 32 34 40 39 33 30 29 23
8 13 16 13 7 3 10 16 19 19 8 6 7 8 9 6 3 5 6 10 8 4 4 9 15 14 15 20 24 22 20 22 20 28 32 25 27 29 37 35 38 40 37 36 37 34 26 28 24
9 13 16 11 9 12 11 9 5 3 2 6 7 7 10 6 5 7 8 9 8 5 4 6 11 14 18 22 23 22 23 25 21 24 33 33 30 27 29 33 36 36 38 37 36 35 33 25 26
12 7 12 14 5 3 1 4 3 4 3 6 8 9 10 10 8 9 7 7 7 6 3 7 8 10 17 20 22 21 21 21 20 24 31 34 29 23 24 30 29 31 35 35 35 36 35 24 22
7 5 10 14 5 3 4 2 5 4 5 7 8 10 11 8 8 7 6 8 10 9 9 7 7 12 9 12 15 10 18 27 21 16 16 28 29 22 16 22 26 24 27 29 35 32 31 26 18
8 10 13 3 3 2 3 4 4 4 5 6 8 10 11 11 10 10 12 13 16 14 16 15 14 17 19 17 15 8 13 5 10 5 6 21 23 19 17 16 12 9 7 8 18 21 21 23 25
5 3 3 1 1 4 1 2 3 7 8 5 7 8 10 10 10 10 11 11 18 17 17 16 17 24 22 21 22 19 14 18 17 10 6 10 15 12 11 12 7 11 16 16 16 17 17 19 18
4 2 2 4 1 2 1 2 2 6 6 5 7 7 9 11 10 9 11 11 13 15 21 16 20 22 21 24 23 19 18 17 16 17 19 12 3 4 6 7 11 16 19 18 21 21 21 22 24
1 3 2 4 2 1 3 1 2 4 7 7 8 9 9 9 8 8 8 15 16 17 23 22 21 22 23 21 20 21 19 17 17 15 14 12 10 11 6 8 12 18 21 22 23 26 30 27 28
3 4 2 2 3 2 2 3 3 3 3 5 6 7 6 5 7 7 9 14 15 16 15 16 18 19 18 19 19 18 19 19 17 15 15 14 13 10 6 3 2 5 9 13 20 25 28 27 28
2 2 4 2 2 2 2 2 4 1 1 3 5 5 3 4 5 5 7 8 10 12 15 18 19 20 19 19 19 19 20 19 17 17 16 15 12 11 9 7 6 7 10 11 11 10 12 18 22
3 3 3 2 2 1 1 2 5 4 4 3 6 5 2 2 0 1 3 6 11 14 17 18 18 18 16 16 18 19 18 19 20 20 19 18 16 14 12 11 8 7 8 8 10 12 15 17 20
Wind_Direction
5 6 26 53 73 65 272 258 247 255 216 345 282 248 213 230 218 231 326 199 217 177 172 175 173 172 171 168 173 175 170 165 159 155 155 155 157 152 152 152 145 146 148 135 135 133 132 130 132
37 70 63 77 99 119 257 250 228 257 323 317 304 324 205 248 201 269 234 225 216 185 176 177 175 174 173 175 176 177 176 173 172 168 164 168 166 159 159 160 154 150 147 139 136 135 133 131 130
94 56 87 118 131 178 224 219 246 329 307 306 336 287 309 291 314 271 205 168 167 176 180 179 176 178 178 177 179 180 181 183 183 179 177 179 174 168 168 166 162 157 153 152 141 140 140 137 134
93 34 33 115 205 245 220 224 13 356 327 16 358 303 315 236 226 316 213 187 172 180 185 182 178 178 178 179 181 186 189 191 195 192 188 186 183 177 172 172 163 161 162 158 154 150 149 145 141
51 60 80 146 240 259 267 291 341 323 279 304 324 295 267 320 272 248 233 191 186 183 185 180 180 178 176 177 181 185 192 199 202 203 198 197 188 185 182 174 169 168 175 174 164 157 156 153 147
53 88 108 226 226 233 267 247 291 303 16 317 354 323 273 350 306 225 211 196 200 189 182 180 185 187 182 178 181 183 189 200 209 210 207 204 197 188 189 176 174 176 177 173 175 165 164 160 157
110 96 204 232 228 274 240 121 332 348 327 352 314 312 293 13 313 267 204 198 201 196 184 181 181 182 171 170 169 177 182 200 227 220 215 209 204 195 192 182 175 186 182 180 181 175 170 170 166
103 99 170 240 211 259 297 349 305 52 293 315 337 6 333 334 328 285 223 185 191 189 191 192 188 175 174 166 166 168 173 196 264 221 220 216 204 199 196 181 184 185 187 188 186 188 177 176 176
102 86 201 222 179 253 355 13 323 309 268 345 262 70 316 330 346 307 281 224 181 178 184 188 186 177 171 167 165 159 150 109 26 218 214 214 205 200 191 187 188 191 193 196 197 191 191 182 183
105 141 218 220 232 271 301 314 319 315 300 265 246 321 325 332 321 264 267 266 258 181 174 178 175 175 174 178 173 173 167 106 67 27 234 224 211 201 196 195 195 193 200 200 195 193 197 190 189
136 200 230 251 266 290 299 310 252 278 279 197 283 285 310 319 319 280 249 247 229 222 193 184 179 176 177 181 179 176 195 239 262 306 310 252 223 207 199 197 196 202 201 201 197 198 200 199 197
288 268 276 302 342 321 287 296 280 248 259 264 268 272 279 291 296 290 256 249 239 215 205 196 194 195 197 197 199 212 217 241 244 255 272 241 228 207 203 198 196 204 206 206 205 204 201 201 203
215 326 330 319 311 288 281 268 260 266 287 275 263 275 278 279 282 293 301 269 239 228 225 222 221 224 221 227 235 238 243 246 243 250 248 229 227 212 207 201 198 201 208 210 206 205 203 203 207
332 295 289 298 288 272 278 274 251 257 293 289 286 278 250 249 261 282 289 283 253 234 233 229 226 224 221 223 235 247 253 250 253 251 239 238 221 219 220 202 200 203 208 213 208 207 204 208 211
320 315 321 257 260 269 265 280 235 263 263 269 276 282 271 225 251 251 268 279 278 269 248 232 229 224 219 224 240 247 253 248 247 248 253 241 221 222 222 216 200 210 217 220 207 214 208 213 214
352 355 337 305 340 274 135 265 288 266 260 279 279 285 276 238 230 255 261 264 268 274 254 237 229 224 219 221 234 248 250 244 247 244 250 250 233 226 218 210 216 199 218 224 218 209 214 215 217
352 290 301 309 262 252 193 291 260 297 280 281 279 277 267 255 239 257 263 259 267 263 242 234 227 230 228 237 240 237 247 254 252 253 258 248 238 224 208 209 207 205 226 227 228 214 215 212 215
231 261 264 246 280 312 296 282 282 282 257 267 274 265 263 258 249 248 254 262 265 243 229 231 233 234 239 243 248 247 255 262 261 251 264 245 230 214 202 200 204 219 221 223 227 219 214 220 221
173 241 267 263 267 275 259 267 278 288 262 273 275 265 262 264 255 252 246 251 230 218 222 231 239 239 242 245 249 254 257 266 256 252 242 218 205 196 198 197 197 214 214 221 223 222 221 219 220
259 270 275 282 258 284 272 277 287 285 275 248 268 279 279 278 247 123 126 109 96 126 228 249 258 258 258 256 258 266 277 267 262 251 236 231 206 202 211 208 202 200 212 215 218 218 219 222 212
244 249 275 267 306 277 270 277 342 341 48 354 18 357 8 38 30 87 98 94 96 86 28 306 280 279 272 268 267 268 273 265 258 241 239 228 225 205 210 212 212 208 213 213 218 218 217 211 209
269 250 257 272 288 277 186 289 308 330 356 9 13 16 15 26 35 44 52 60 58 65 33 360 312 292 268 263 258 257 256 251 246 239 230 210 209 203 215 219 219 215 219 218 222 225 222 219 203
250 258 282 287 272 315 192 246 269 358 9 352 8 16 14 22 44 43 42 38 36 36 53 60 63 34 14 258 243 250 311 242 238 242 231 185 203 211 222 214 216 216 217 222 226 222 223 219 217
254 285 272 243 223 245 227 155 304 22 331 329 7 23 23 17 32 38 33 44 38 48 66 64 57 45 53 55 66 34 15 48 164 189 232 173 189 198 215 227 217 226 248 254 241 237 240 243 234
212 272 310 305 233 231 118 175 254 343 1 349 31 49 38 27 36 36 33 24 39 31 47 55 52 56 49 54 52 44 28 41 51 50 28 87 125 146 200 223 252 270 277 269 266 261 254 254 261
261 208 269 299 256 279 309 291 322 341 316 52 63 67 49 36 28 32 34 38 42 33 48 45 54 56 53 55 51 40 48 49 51 52 42 61 83 197 225 231 243 242 257 255 245 253 254 250 253
91 242 222 272 230 91 268 211 252 1 40 63 62 56 40 42 30 27 18 52 36 33 39 42 49 52 50 53 57 53 48 51 49 47 46 40 41 58 82 236 260 261 262 253 251 248 251 251 257
246 339 286 269 309 349 339 330 332 346 29 21 52 63 60 44 30 18 30 45 39 45 47 58 61 61 56 55 55 54 53 55 56 55 54 51 39 28 15 3 307 294 295 258 248 247 249 247 249
206 257 230 260 246 343 329 334 24 345 157 128 87 83 96 50 32 30 39 36 60 62 59 57 54 53 48 49 51 49 44 44 46 47 44 43 39 34 32 16 349 321 301 282 274 259 253 246 245
184 244 233 162 238 25 141 331 45 100 156 142 123 161 64 356 149 197 99 53 52 49 45 43 46 50 50 52 51 46 44 40 37 35 31 27 25 25 24 14 360 332 312 313 295 279 267 266 268